Weather in Bol'shiye Ploty

Russia / Tula Oblast     53°18′14″N   38°11′14″E
temp.,
°C
wind,
m/s
gust,
m/s
humid.,
%
clouds,
%
prec.,
mm/h
press.,
hPa
HPBL,
m
5 march, fri
fri500:00−3w41091100 0.1 1002352
03:00−3wnw5995100 0.1 1004354
06:00−7nw479682 0.1 100698
09:00−7wnw379666 0.1 1009170
12:00−4nw349455 0.0 1010284
15:00−3wnw349070 0.0 1012512
18:00−6w349272 0.0 101329
21:00−8wnw339260 0.0 101521
6 march, sat
sat600:00−10wnw229168 0.0 101621
03:00−11wnw129083 0.0 101721
06:00−12w1191100 0.0 101621
09:00−9sw1195100 0.0 101734
12:00−5w229097 0.3 1017379
15:00−4nw349098 0.4 1016586
18:00−7nnw379487 0.1 1016172
21:00−11wnw349059 0.1 101829
7 march, sun
sun700:00−12w46900 0.0 101886
03:00−13wsw47920 0.0 1017112
06:00−12sw512900 0.0 1014247
09:00−8sw8178546 0.0 1011653
12:00−4sw111882100 0.0 10051065
15:00−3wsw121993100 1.1 10011281
18:00−6wnw71472100 1.3 1002918
21:00−10wsw5137963 1.3 1005233
8 march, mon
mon800:00−10sw612800 0.0 1004258
03:00−10sw6147911 0.0 1002317
06:00−7sw6149297 0.0 999523
09:00−6wnw7128798 0.2 1000848
12:00−8wnw8127842 0.0 10031295
15:00−7wnw9137469 0.1 10061386
18:00−9w5138027 0.0 1008396
21:00−11w4118917 0.0 1010216
9 march, tue
tue900:00−13w479414 0.0 1011119
03:00−14wnw349621 0.0 101241
06:00−14wnw239673 0.0 101426
09:00−13nnw369486 0.1 1015224
12:00−11nnw4690100 0.0 1016531
15:00−11nw5787100 0.1 1016622
18:00−14nw349399 0.0 101746
21:00−17wnw349582 0.0 102031